Tracking 28790 objects as of 19-Apr-2024
HD Live streaming from Space Station
objects crossing your sky now

THOR BURNER 2 R/B

Track THOR BURNER 2 R/B now!
10-day predictions


NORAD ID: 6788
Int'l Code: 1973-054B
Perigee: 790.9 km
Apogee: 830.3 km
Inclination: 98.7 °
Period: 100.9 minutes
Semi major axis: 7181 km
RCS: 1.2203 m2 (large)
Launch date: August 17, 1973
Source: United States (US)
Launch site: AIR FORCE WESTERN TEST RANGE (AFWTR)

Note: This is a ROCKET BODY
Your satellite tracking list
Your tracking list is empty




NASA's NSSDC Master Catalog

Two Line Element Set (TLE):
1 06788U 73054B   24109.52706497  .00000377  00000-0  17440-3 0  9990
2 06788  98.7337 331.7204 0027427 200.9049 159.1012 14.26491699632870
Source of the keplerian elements: AFSPC